Volver al catálogo

STARLINK-34481

ActivoComunicacionesVLEO
NORAD 65104·PAYLOAD·🇺🇸 United States

Lanzado Aug 4, 2025 desde Cape Canaveral Space Force Station

Loading…

Próximos Pases (próximas 24 horas)

TLE

ActualizadoSource: CelesTrak SupGP

Época: Sep 14, 2026, 22:51 UTC

1 65104C 25167AC  26257.95256944  .00005604  00000+0  16551-3 0  2575
2 65104  53.1574 219.7917 0001536 102.3973 341.6073 15.34396267    10

Sigue STARLINK-34481 en tiempo real con AllMySat

Download on the App Store